sat.trackr.live / text

‹ back to catalog

STARLINK-11607 [DTC]

NORAD 63140 · 2025-043J

PAYLOAD ACTIVE UNKNOWN

§ Identity

Operator
Country
US
Launch date
2025-03-03
Launch site
AFETR
Launch vehicle
Mass (kg)
RCS (m²)

Purposes: comms

External: N2YO · Heavens-Above · Gunter

§ Orbital elements

Epoch: 2026-05-24T17:25:26.114016Z

Period
91.67 min
Inclination
43.0006°
Eccentricity
0.0000772
Mean motion
15.70876554 rev/d
Perigee alt
355.9 km
Apogee alt
356.9 km
Semi-major
6,734.5 km
B*
1.4575e-3
RAAN
152.1272°
Arg perigee
32.5808°
Mean anomaly
327.5107°
Rev number
7,143

§ Raw data

STARLINK-11607 [DTC]1 63140U 25043J   26144.72599669  .00191227  00000+0  14575-2 0  99932 63140  43.0006 152.1272 0000772  32.5808 327.5107 15.70876554 71439

JSON: /api/v1/satellites/63140 · /tle

For live sub-satellite position, see the globe view (requires WebGL).

§ Visibility from observer

Set your observer location to see the next 7 days of passes ≥ 10°. The values pass through the URL so the page stays shareable.

No JS? Fill the form by hand. The geolocation button needs JavaScript.